{"data":{"norad_id":68919,"intl_designator":"2026-098A","name":"KUIPER-00370","alt_names":[],"object_type":"PAYLOAD","status":"ACTIVE","operator":null,"country":"US","launch_date":"2026-04-30","launch_site_code":"FRGUI","launch_vehicle":null,"mission":null,"orbit_class":"UNKNOWN","rcs_meters":null,"size_class":null,"mass_kg":null,"dimensions":null,"purposes":[],"wikipedia_slug":null,"has_3d_model":false,"image_url":null,"decayed_at":null,"tle_current":{"epoch":"2026-09-19T13:51:03.777120Z","epoch_age_seconds":95285,"freshness":"FRESH","line1":"1 68919U 26098A   26262.57712705  .00002162  00000+0  31243-3 0  9996","line2":"2 68919  51.9001   0.6312 0000300 103.4583 256.6413 14.79939825 21467","mean_motion":14.79939825,"eccentricity":3.0e-5,"inclination_deg":51.9001,"raan_deg":0.6312,"arg_perigee_deg":103.4583,"mean_anomaly_deg":256.6413,"bstar":0.00031243,"rev_number":2146,"period_min":97.301253447923,"perigee_km":629.3038548915,"apogee_km":629.72431395656,"semimajor_km":7007.651084424,"source":"CELESTRAK","updated_at":"2026-09-20T09:00:24.552044Z"}}}